Вернуться в каталог

STARLINK-31506

АктивенСвязьVLEO
NORAD 59259·PAYLOAD·🇺🇸 United States

Запущен Mar 19, 2024 с Vandenberg Space Force Base

Loading…

Ближайшие Пролёты (ближайшие 24 часа)

TLE

СвежийSource: CelesTrak SupGP

Эпоха: Sep 15, 2026, 02:56 UTC

1 59259C 24050F   26258.12270833  .00036711  00000+0  10844-2 0  2584
2 59259  53.1615  20.5121 0001108  71.8340 153.6429 15.34380516    14

Отслеживайте STARLINK-31506 в реальном времени с AllMySat

Download on the App Store